Year,Month,Day,Hour,Minute,Value (Times are PST for temperature in C)
2018,08,19,00,00,16.80
2018,08,19,00,01,16.80
2018,08,19,00,02,16.80
2018,08,19,00,03,16.80
2018,08,19,00,04,16.80
2018,08,19,00,05,16.80
2018,08,19,00,06,16.80
2018,08,19,00,07,16.80
2018,08,19,00,08,16.80
2018,08,19,00,09,16.80
2018,08,19,00,10,16.80
2018,08,19,00,11,16.70
2018,08,19,00,12,16.70
2018,08,19,00,13,16.70
2018,08,19,00,14,16.70
2018,08,19,00,15,16.70
2018,08,19,00,16,16.70
2018,08,19,00,17,16.70
2018,08,19,00,18,16.70
2018,08,19,00,19,16.70
2018,08,19,00,20,16.70
2018,08,19,00,21,16.70
2018,08,19,00,22,16.60
2018,08,19,00,23,16.60
2018,08,19,00,24,16.60
2018,08,19,00,25,16.60
2018,08,19,00,26,16.60
2018,08,19,00,27,16.60
2018,08,19,00,28,16.60
2018,08,19,00,29,16.60
2018,08,19,00,30,16.60
2018,08,19,00,31,16.50
2018,08,19,00,32,16.50
2018,08,19,00,33,16.50
2018,08,19,00,34,16.50
2018,08,19,00,35,16.50
2018,08,19,00,36,16.50
2018,08,19,00,37,16.50
2018,08,19,00,38,16.50
2018,08,19,00,39,16.50
2018,08,19,00,40,16.50
2018,08,19,00,41,16.50
2018,08,19,00,42,16.50
2018,08,19,00,43,16.50
2018,08,19,00,44,16.50
2018,08,19,00,45,16.50
2018,08,19,00,46,16.50
2018,08,19,00,47,16.40
2018,08,19,00,48,16.40
2018,08,19,00,49,16.40
2018,08,19,00,50,16.40
2018,08,19,00,51,16.40
2018,08,19,00,52,16.40
2018,08,19,00,53,16.40
2018,08,19,00,54,16.40
2018,08,19,00,55,16.40
2018,08,19,00,56,16.40
2018,08,19,00,57,16.40
2018,08,19,00,58,16.40
2018,08,19,00,59,16.40
2018,08,19,01,00,16.30
2018,08,19,01,01,16.30
2018,08,19,01,02,16.30
2018,08,19,01,03,16.30
2018,08,19,01,04,16.30
2018,08,19,01,05,16.30
2018,08,19,01,06,16.30
2018,08,19,01,07,16.30
2018,08,19,01,08,16.30
2018,08,19,01,09,16.30
2018,08,19,01,10,16.30
2018,08,19,01,11,16.30
2018,08,19,01,12,16.30
2018,08,19,01,13,16.30
2018,08,19,01,14,16.30
2018,08,19,01,15,16.30
2018,08,19,01,16,16.30
2018,08,19,01,17,16.30
2018,08,19,01,18,16.30
2018,08,19,01,19,16.30
2018,08,19,01,20,16.30
2018,08,19,01,21,16.20
2018,08,19,01,22,16.20
2018,08,19,01,23,16.20
2018,08,19,01,24,16.20
2018,08,19,01,25,16.20
2018,08,19,01,26,16.20
2018,08,19,01,27,16.20
2018,08,19,01,28,16.20
2018,08,19,01,29,16.20
2018,08,19,01,30,16.10
2018,08,19,01,31,16.10
2018,08,19,01,32,16.10
2018,08,19,01,33,16.10
2018,08,19,01,34,16.10
2018,08,19,01,35,16.10
2018,08,19,01,36,16.10
2018,08,19,01,37,16.10
2018,08,19,01,38,16.10
2018,08,19,01,39,16.10
2018,08,19,01,40,16.00
2018,08,19,01,41,16.00
2018,08,19,01,42,16.00
2018,08,19,01,43,16.00
2018,08,19,01,44,16.00
2018,08,19,01,45,16.00
2018,08,19,01,46,16.00
2018,08,19,01,47,16.00
2018,08,19,01,48,15.90
2018,08,19,01,49,15.90
2018,08,19,01,50,15.90
2018,08,19,01,51,15.90
2018,08,19,01,52,15.90
2018,08,19,01,53,15.90
2018,08,19,01,54,15.90
2018,08,19,01,55,15.90
2018,08,19,01,56,15.90
2018,08,19,01,57,15.90
2018,08,19,01,58,15.90
2018,08,19,01,59,15.80
2018,08,19,02,00,15.80
2018,08,19,02,01,15.80
2018,08,19,02,02,15.80
2018,08,19,02,03,15.80
2018,08,19,02,04,15.80
2018,08,19,02,05,15.80
2018,08,19,02,06,15.80
2018,08,19,02,07,15.80
2018,08,19,02,08,15.80
2018,08,19,02,09,15.70
2018,08,19,02,10,15.70
2018,08,19,02,11,15.70
2018,08,19,02,12,15.70
2018,08,19,02,13,15.70
2018,08,19,02,14,15.70
2018,08,19,02,15,15.70
2018,08,19,02,16,15.70
2018,08,19,02,17,15.70
2018,08,19,02,18,15.70
2018,08,19,02,19,15.60
2018,08,19,02,20,15.60
2018,08,19,02,21,15.60
2018,08,19,02,22,15.60
2018,08,19,02,23,15.60
2018,08,19,02,24,15.60
2018,08,19,02,25,15.60
2018,08,19,02,26,15.60
2018,08,19,02,27,15.60
2018,08,19,02,28,15.60
2018,08,19,02,29,15.60
2018,08,19,02,30,15.60
2018,08,19,02,31,15.60
2018,08,19,02,32,15.60
2018,08,19,02,33,15.60
2018,08,19,02,34,15.60
2018,08,19,02,35,15.60
2018,08,19,02,36,15.60
2018,08,19,02,37,15.60
2018,08,19,02,38,15.60
2018,08,19,02,39,15.60
2018,08,19,02,40,15.60
2018,08,19,02,41,15.60
2018,08,19,02,42,15.60
2018,08,19,02,43,15.60
2018,08,19,02,44,15.60
2018,08,19,02,45,15.60
2018,08,19,02,46,15.60
2018,08,19,02,47,15.60
2018,08,19,02,48,15.60
2018,08,19,02,49,15.60
2018,08,19,02,50,15.60
2018,08,19,02,51,15.60
2018,08,19,02,52,15.60
2018,08,19,02,53,15.60
2018,08,19,02,54,15.60
2018,08,19,02,55,15.60
2018,08,19,02,56,15.50
2018,08,19,02,57,15.50
2018,08,19,02,58,15.50
2018,08,19,02,59,15.50
2018,08,19,03,00,15.50
2018,08,19,03,01,15.50
2018,08,19,03,02,15.50
2018,08,19,03,03,15.50
2018,08,19,03,04,15.50
2018,08,19,03,05,15.40
2018,08,19,03,06,15.40
2018,08,19,03,07,15.40
2018,08,19,03,08,15.40
2018,08,19,03,09,15.40
2018,08,19,03,10,15.40
2018,08,19,03,11,15.40
2018,08,19,03,12,15.40
2018,08,19,03,13,15.40
2018,08,19,03,14,15.40
2018,08,19,03,15,15.40
2018,08,19,03,16,15.40
2018,08,19,03,17,15.40
2018,08,19,03,18,15.40
2018,08,19,03,19,15.40
2018,08,19,03,20,15.40
2018,08,19,03,21,15.40
2018,08,19,03,22,15.40
2018,08,19,03,23,15.40
2018,08,19,03,24,15.40
2018,08,19,03,25,15.40
2018,08,19,03,26,15.40
2018,08,19,03,27,15.40
2018,08,19,03,28,15.40
2018,08,19,03,29,15.40
2018,08,19,03,30,15.40
2018,08,19,03,31,15.40
2018,08,19,03,32,15.30
2018,08,19,03,33,15.40
2018,08,19,03,34,15.30
2018,08,19,03,35,15.30
2018,08,19,03,36,15.30
2018,08,19,03,37,15.30
2018,08,19,03,38,15.30
2018,08,19,03,39,15.30
2018,08,19,03,40,15.30
2018,08,19,03,41,15.30
2018,08,19,03,42,15.30
2018,08,19,03,43,15.30
2018,08,19,03,44,15.30
2018,08,19,03,45,15.30
2018,08,19,03,46,15.30
2018,08,19,03,47,15.30
2018,08,19,03,48,15.30
2018,08,19,03,49,15.30
2018,08,19,03,50,15.30
2018,08,19,03,51,15.30
2018,08,19,03,52,15.30
2018,08,19,03,53,15.30
2018,08,19,03,54,15.30
2018,08,19,03,55,15.30
2018,08,19,03,56,15.20
2018,08,19,03,57,15.20
2018,08,19,03,58,15.20
2018,08,19,03,59,15.20
2018,08,19,04,00,15.20
2018,08,19,04,01,15.20
2018,08,19,04,02,15.20
2018,08,19,04,03,15.20
2018,08,19,04,04,15.20
2018,08,19,04,05,15.20
2018,08,19,04,06,15.20
2018,08,19,04,07,15.20
2018,08,19,04,08,15.20
2018,08,19,04,09,15.20
2018,08,19,04,10,15.20
2018,08,19,04,11,15.10
2018,08,19,04,12,15.10
2018,08,19,04,13,15.10
2018,08,19,04,14,15.10
2018,08,19,04,15,15.10
2018,08,19,04,16,15.10
2018,08,19,04,17,15.10
2018,08,19,04,18,15.10
2018,08,19,04,19,15.10
2018,08,19,04,20,15.10
2018,08,19,04,21,15.10
2018,08,19,04,22,15.10
2018,08,19,04,23,15.10
2018,08,19,04,24,15.10
2018,08,19,04,25,15.10
2018,08,19,04,26,15.10
2018,08,19,04,27,15.10
2018,08,19,04,28,15.10
2018,08,19,04,29,15.10
2018,08,19,04,30,15.10
2018,08,19,04,31,15.10
2018,08,19,04,32,15.10
2018,08,19,04,33,15.10
2018,08,19,04,34,15.10
2018,08,19,04,35,15.10
2018,08,19,04,36,15.10
2018,08,19,04,37,15.10
2018,08,19,04,38,15.10
2018,08,19,04,39,15.10
2018,08,19,04,40,15.00
2018,08,19,04,41,15.10
2018,08,19,04,42,15.00
2018,08,19,04,43,15.00
2018,08,19,04,44,15.00
2018,08,19,04,45,15.00
2018,08,19,04,46,15.00
2018,08,19,04,47,15.00
2018,08,19,04,48,15.00
2018,08,19,04,49,15.00
2018,08,19,04,50,15.00
2018,08,19,04,51,14.90
2018,08,19,04,52,14.90
2018,08,19,04,53,14.90
2018,08,19,04,54,14.90
2018,08,19,04,55,14.90
2018,08,19,04,56,14.90
2018,08,19,04,57,14.90
2018,08,19,04,58,14.90
2018,08,19,04,59,14.90
2018,08,19,05,00,14.90
2018,08,19,05,01,14.90
2018,08,19,05,02,14.90
2018,08,19,05,03,14.90
2018,08,19,05,04,14.90
2018,08,19,05,05,14.90
2018,08,19,05,06,14.90
2018,08,19,05,07,14.90
2018,08,19,05,08,14.90
2018,08,19,05,09,14.80
2018,08,19,05,10,14.80
2018,08,19,05,11,14.80
2018,08,19,05,12,14.80
2018,08,19,05,13,14.80
2018,08,19,05,14,14.80
2018,08,19,05,15,14.80
2018,08,19,05,16,14.80
2018,08,19,05,17,14.80
2018,08,19,05,18,14.80
2018,08,19,05,19,14.80
2018,08,19,05,20,14.80
2018,08,19,05,21,14.80
2018,08,19,05,22,14.70
2018,08,19,05,23,14.70
2018,08,19,05,24,14.70
2018,08,19,05,25,14.70
2018,08,19,05,26,14.70
2018,08,19,05,27,14.70
2018,08,19,05,28,14.70
2018,08,19,05,29,14.70
2018,08,19,05,30,14.70
2018,08,19,05,31,14.60
2018,08,19,05,32,14.60
2018,08,19,05,33,14.60
2018,08,19,05,34,14.60
2018,08,19,05,35,14.60
2018,08,19,05,36,14.60
2018,08,19,05,37,14.60
2018,08,19,05,38,14.60
2018,08,19,05,39,14.60
2018,08,19,05,40,14.60
2018,08,19,05,41,14.60
2018,08,19,05,42,14.50
2018,08,19,05,43,14.50
2018,08,19,05,44,14.50
2018,08,19,05,45,14.50
2018,08,19,05,46,14.50
2018,08,19,05,47,14.50
2018,08,19,05,48,14.50
2018,08,19,05,49,14.50
2018,08,19,05,50,14.40
2018,08,19,05,51,14.40
2018,08,19,05,52,14.40
2018,08,19,05,53,14.40
2018,08,19,05,54,14.40
2018,08,19,05,55,14.40
2018,08,19,05,56,14.40
2018,08,19,05,57,14.40
2018,08,19,05,58,14.40
2018,08,19,05,59,14.30
2018,08,19,06,00,14.30
2018,08,19,06,01,14.30
2018,08,19,06,02,14.30
2018,08,19,06,03,14.30
2018,08,19,06,04,14.30
2018,08,19,06,05,14.30
2018,08,19,06,06,14.30
2018,08,19,06,07,14.30
2018,08,19,06,08,14.30
2018,08,19,06,09,14.30
2018,08,19,06,10,14.30
2018,08,19,06,11,14.30
2018,08,19,06,12,14.30
2018,08,19,06,13,14.30
2018,08,19,06,14,14.30
2018,08,19,06,15,14.30
2018,08,19,06,16,14.30
2018,08,19,06,17,14.30
2018,08,19,06,18,14.30
2018,08,19,06,19,14.30
2018,08,19,06,20,14.30
2018,08,19,06,21,14.30
2018,08,19,06,22,14.30
2018,08,19,06,23,14.30
2018,08,19,06,24,14.30
2018,08,19,06,25,14.30
2018,08,19,06,26,14.30
2018,08,19,06,27,14.30
2018,08,19,06,28,14.30
2018,08,19,06,29,14.30
2018,08,19,06,30,14.30
2018,08,19,06,31,14.20
2018,08,19,06,32,14.20
2018,08,19,06,33,14.20
2018,08,19,06,34,14.20
2018,08,19,06,35,14.20
2018,08,19,06,36,14.20
2018,08,19,06,37,14.20
2018,08,19,06,38,14.20
2018,08,19,06,39,14.20
2018,08,19,06,40,14.20
2018,08,19,06,41,14.20
2018,08,19,06,42,14.20
2018,08,19,06,43,14.20
2018,08,19,06,44,14.20
2018,08,19,06,45,14.20
2018,08,19,06,46,14.20
2018,08,19,06,47,14.20
2018,08,19,06,48,14.20
2018,08,19,06,49,14.20
2018,08,19,06,50,14.20
2018,08,19,06,51,14.20
2018,08,19,06,52,14.20
2018,08,19,06,53,14.20
2018,08,19,06,54,14.20
2018,08,19,06,55,14.20
2018,08,19,06,56,14.20
2018,08,19,06,57,14.20
2018,08,19,06,58,14.20
2018,08,19,06,59,14.20
2018,08,19,07,00,14.20
2018,08,19,07,01,14.20
2018,08,19,07,02,14.20
2018,08,19,07,03,14.20
2018,08,19,07,04,14.20
2018,08,19,07,05,14.20
2018,08,19,07,06,14.20
2018,08,19,07,07,14.20
2018,08,19,07,08,14.20
2018,08,19,07,09,14.20
2018,08,19,07,10,14.20
2018,08,19,07,11,14.30
2018,08,19,07,12,14.20
2018,08,19,07,13,14.30
2018,08,19,07,14,14.30
2018,08,19,07,15,14.30
2018,08,19,07,16,14.30
2018,08,19,07,17,14.30
2018,08,19,07,18,14.20
2018,08,19,07,19,14.20
2018,08,19,07,20,14.20
2018,08,19,07,21,14.20
2018,08,19,07,22,14.20
2018,08,19,07,23,14.20
2018,08,19,07,24,14.20
2018,08,19,07,25,14.20
2018,08,19,07,26,14.20
2018,08,19,07,27,14.20
2018,08,19,07,28,14.20
2018,08,19,07,29,14.20
2018,08,19,07,30,14.20
2018,08,19,07,31,14.20
2018,08,19,07,32,14.20
2018,08,19,07,33,14.20
2018,08,19,07,34,14.20
2018,08,19,07,35,14.20
2018,08,19,07,36,14.30
2018,08,19,07,37,14.30
2018,08,19,07,38,14.30
2018,08,19,07,39,14.30
2018,08,19,07,40,14.30
2018,08,19,07,41,14.30
2018,08,19,07,42,14.30
2018,08,19,07,43,14.30
2018,08,19,07,44,14.30
2018,08,19,07,45,14.30
2018,08,19,07,46,14.30
2018,08,19,07,47,14.30
2018,08,19,07,48,14.30
2018,08,19,07,49,14.30
2018,08,19,07,50,14.30
2018,08,19,07,51,14.30
2018,08,19,07,52,14.30
2018,08,19,07,53,14.30
2018,08,19,07,54,14.30
2018,08,19,07,55,14.30
2018,08,19,07,56,14.30
2018,08,19,07,57,14.20
2018,08,19,07,58,14.30
2018,08,19,07,59,14.30
2018,08,19,08,00,14.30
2018,08,19,08,01,14.30
2018,08,19,08,02,14.30
2018,08,19,08,03,14.30
2018,08,19,08,04,14.30
2018,08,19,08,05,14.30
2018,08,19,08,06,14.30
2018,08,19,08,07,14.30
2018,08,19,08,08,14.30
2018,08,19,08,09,14.30
2018,08,19,08,10,14.30
2018,08,19,08,11,14.30
2018,08,19,08,12,14.30
2018,08,19,08,13,14.30
2018,08,19,08,14,14.30
2018,08,19,08,15,14.30
2018,08,19,08,16,14.40
2018,08,19,08,17,14.40
2018,08,19,08,18,14.40
2018,08,19,08,19,14.40
2018,08,19,08,20,14.40
2018,08,19,08,21,14.40
2018,08,19,08,22,14.50
2018,08,19,08,23,14.50
2018,08,19,08,24,14.50
2018,08,19,08,25,14.60
2018,08,19,08,26,14.60
2018,08,19,08,27,14.60
2018,08,19,08,28,14.60
2018,08,19,08,29,14.60
2018,08,19,08,30,14.70
2018,08,19,08,31,14.70
2018,08,19,08,32,14.70
2018,08,19,08,33,14.70
2018,08,19,08,34,14.70
2018,08,19,08,35,14.70
2018,08,19,08,36,14.70
2018,08,19,08,37,14.70
2018,08,19,08,38,14.80
2018,08,19,08,39,14.80
2018,08,19,08,40,14.80
2018,08,19,08,41,14.80
2018,08,19,08,42,14.80
2018,08,19,08,43,14.80
2018,08,19,08,44,14.80
2018,08,19,08,45,14.80
2018,08,19,08,46,14.80
2018,08,19,08,47,14.90
2018,08,19,08,48,14.90
2018,08,19,08,49,14.90
2018,08,19,08,50,14.90
2018,08,19,08,51,14.80
2018,08,19,08,52,14.80
2018,08,19,08,53,14.90
2018,08,19,08,54,14.90
2018,08,19,08,55,14.90
2018,08,19,08,56,14.90
2018,08,19,08,57,14.90
2018,08,19,08,58,14.90
2018,08,19,08,59,15.00
2018,08,19,09,00,15.00
2018,08,19,09,01,15.10
2018,08,19,09,02,15.10
2018,08,19,09,03,15.10
2018,08,19,09,04,15.10
2018,08,19,09,05,15.10
2018,08,19,09,06,15.20
2018,08,19,09,07,15.20
2018,08,19,09,08,15.20
2018,08,19,09,09,15.20
2018,08,19,09,10,15.20
2018,08,19,09,11,15.20
2018,08,19,09,12,15.30
2018,08,19,09,13,15.30
2018,08,19,09,14,15.30
2018,08,19,09,15,15.30
2018,08,19,09,16,15.30
2018,08,19,09,17,15.30
2018,08,19,09,18,15.40
2018,08,19,09,19,15.40
2018,08,19,09,20,15.40
2018,08,19,09,21,15.40
2018,08,19,09,22,15.40
2018,08,19,09,23,15.40
2018,08,19,09,24,15.40
2018,08,19,09,25,15.40
2018,08,19,09,26,15.40
2018,08,19,09,27,15.50
2018,08,19,09,28,15.50
2018,08,19,09,29,15.50
2018,08,19,09,30,15.60
2018,08,19,09,31,15.60
2018,08,19,09,32,15.60
2018,08,19,09,33,15.60
2018,08,19,09,34,15.60
2018,08,19,09,35,15.60
2018,08,19,09,36,15.60
2018,08,19,09,37,15.60
2018,08,19,09,38,15.60
2018,08,19,09,39,15.70
2018,08,19,09,40,15.70
2018,08,19,09,41,15.70
2018,08,19,09,42,15.80
2018,08,19,09,43,15.80
2018,08,19,09,44,15.80
2018,08,19,09,45,15.80
2018,08,19,09,46,15.90
2018,08,19,09,47,15.90
2018,08,19,09,48,15.90
2018,08,19,09,49,15.90
2018,08,19,09,50,16.00
2018,08,19,09,51,16.00
2018,08,19,09,52,16.00
2018,08,19,09,53,16.00
2018,08,19,09,54,16.00
2018,08,19,09,55,16.00
2018,08,19,09,56,16.00
2018,08,19,09,57,16.00
2018,08,19,09,58,16.00
2018,08,19,09,59,16.10
2018,08,19,10,00,16.10
2018,08,19,10,01,16.10
2018,08,19,10,02,16.10
2018,08,19,10,03,16.10
2018,08,19,10,04,16.10
2018,08,19,10,05,16.10
2018,08,19,10,06,16.10
2018,08,19,10,07,16.10
2018,08,19,10,08,16.10
2018,08,19,10,09,16.10
2018,08,19,10,10,16.10
2018,08,19,10,11,16.10
2018,08,19,10,12,16.10
2018,08,19,10,13,16.10
2018,08,19,10,14,16.10
2018,08,19,10,15,16.20
2018,08,19,10,16,16.20
2018,08,19,10,17,16.30
2018,08,19,10,18,16.30
2018,08,19,10,19,16.30
2018,08,19,10,20,16.30
2018,08,19,10,21,16.30
2018,08,19,10,22,16.40
2018,08,19,10,23,16.30
2018,08,19,10,24,16.30
2018,08,19,10,25,16.30
2018,08,19,10,26,16.30
2018,08,19,10,27,16.30
2018,08,19,10,28,16.30
2018,08,19,10,29,16.20
2018,08,19,10,30,16.20
2018,08,19,10,31,16.20
2018,08,19,10,32,16.20
2018,08,19,10,33,16.20
2018,08,19,10,34,16.20
2018,08,19,10,35,16.20
2018,08,19,10,36,16.20
2018,08,19,10,37,16.20
2018,08,19,10,38,16.20
2018,08,19,10,39,16.20
2018,08,19,10,40,16.30
2018,08,19,10,41,16.30
2018,08,19,10,42,16.30
2018,08,19,10,43,16.40
2018,08,19,10,44,16.50
2018,08,19,10,45,16.50
2018,08,19,10,46,16.60
2018,08,19,10,47,16.60
2018,08,19,10,48,16.60
2018,08,19,10,49,16.70
2018,08,19,10,50,16.70
2018,08,19,10,51,16.70
2018,08,19,10,52,16.70
2018,08,19,10,53,16.70
2018,08,19,10,54,16.70
2018,08,19,10,55,16.70
2018,08,19,10,56,16.70
2018,08,19,10,57,16.70
2018,08,19,10,58,16.80
2018,08,19,10,59,16.80
2018,08,19,11,00,16.90
2018,08,19,11,01,16.90
2018,08,19,11,02,17.00
2018,08,19,11,03,17.00
2018,08,19,11,04,17.10
2018,08,19,11,05,17.10
2018,08,19,11,06,17.10
2018,08,19,11,07,17.10
2018,08,19,11,08,17.10
2018,08,19,11,09,17.20
2018,08,19,11,10,17.20
2018,08,19,11,11,17.20
2018,08,19,11,12,17.30
2018,08,19,11,13,17.30
2018,08,19,11,14,17.40
2018,08,19,11,15,17.40
2018,08,19,11,16,17.50
2018,08,19,11,17,17.60
2018,08,19,11,18,17.60
2018,08,19,11,19,17.70
2018,08,19,11,20,17.70
2018,08,19,11,21,17.70
2018,08,19,11,22,17.80
2018,08,19,11,23,17.80
2018,08,19,11,24,17.80
2018,08,19,11,25,17.80
2018,08,19,11,26,17.80
2018,08,19,11,27,17.80
2018,08,19,11,28,17.80
2018,08,19,11,29,17.80
2018,08,19,11,30,17.80
2018,08,19,11,31,17.90
2018,08,19,11,32,17.90
2018,08,19,11,33,17.90
2018,08,19,11,34,18.00
2018,08,19,11,35,18.00
2018,08,19,11,36,18.10
2018,08,19,11,37,18.10
2018,08,19,11,38,18.10
2018,08,19,11,39,18.10
2018,08,19,11,40,18.10
2018,08,19,11,41,18.10
2018,08,19,11,42,18.10
2018,08,19,11,43,18.10
2018,08,19,11,44,18.10
2018,08,19,11,45,18.00
2018,08,19,11,46,17.90
2018,08,19,11,47,17.90
2018,08,19,11,48,17.90
2018,08,19,11,49,17.80
2018,08,19,11,50,17.80
2018,08,19,11,51,17.80
2018,08,19,11,52,17.80
2018,08,19,11,53,17.70
2018,08,19,11,54,17.70
2018,08,19,11,55,17.70
2018,08,19,11,56,17.70
2018,08,19,11,57,17.70
2018,08,19,11,58,17.70
2018,08,19,11,59,17.70
2018,08,19,12,00,17.70
2018,08,19,12,01,17.80
2018,08,19,12,02,17.80
2018,08,19,12,03,17.80
2018,08,19,12,04,17.80
2018,08,19,12,05,17.90
2018,08,19,12,06,17.90
2018,08,19,12,07,17.90
2018,08,19,12,08,18.00
2018,08,19,12,09,18.00
2018,08,19,12,10,18.10
2018,08,19,12,11,18.10
2018,08,19,12,12,18.20
2018,08,19,12,13,18.20
2018,08,19,12,14,18.30
2018,08,19,12,15,18.30
2018,08,19,12,16,18.40
2018,08,19,12,17,18.40
2018,08,19,12,18,18.40
2018,08,19,12,19,18.50
2018,08,19,12,20,18.50
2018,08,19,12,21,18.50
2018,08,19,12,22,18.60
2018,08,19,12,23,18.60
2018,08,19,12,24,18.60
2018,08,19,12,25,18.70
2018,08,19,12,26,18.70
2018,08,19,12,27,18.80
2018,08,19,12,28,18.90
2018,08,19,12,29,19.00
2018,08,19,12,30,19.00
2018,08,19,12,31,18.90
2018,08,19,12,32,18.90
2018,08,19,12,33,19.00
2018,08,19,12,34,19.10
2018,08,19,12,35,19.10
2018,08,19,12,36,19.10
2018,08,19,12,37,19.10
2018,08,19,12,38,19.10
2018,08,19,12,39,19.20
2018,08,19,12,40,19.20
2018,08,19,12,41,19.30
2018,08,19,12,42,19.30
2018,08,19,12,43,19.30
2018,08,19,12,44,19.30
2018,08,19,12,45,19.30
2018,08,19,12,46,19.30
2018,08,19,12,47,19.30
2018,08,19,12,48,19.30
2018,08,19,12,49,19.30
2018,08,19,12,50,19.40
2018,08,19,12,51,19.40
2018,08,19,12,52,19.50
2018,08,19,12,53,19.50
2018,08,19,12,54,19.50
2018,08,19,12,55,19.50
2018,08,19,12,56,19.50
2018,08,19,12,57,19.60
2018,08,19,12,58,19.60
2018,08,19,12,59,19.50
2018,08,19,13,00,19.50
2018,08,19,13,01,19.50
2018,08,19,13,02,19.50
2018,08,19,13,03,19.50
2018,08,19,13,04,19.50
2018,08,19,13,05,19.60
2018,08,19,13,06,19.60
2018,08,19,13,07,19.60
2018,08,19,13,08,19.60
2018,08,19,13,09,19.70
2018,08,19,13,10,19.70
2018,08,19,13,11,19.70
2018,08,19,13,12,19.80
2018,08,19,13,13,19.90
2018,08,19,13,14,19.90
2018,08,19,13,15,19.90
2018,08,19,13,16,19.90
2018,08,19,13,17,20.00
2018,08,19,13,18,20.10
2018,08,19,13,19,20.10
2018,08,19,13,20,20.20
2018,08,19,13,21,20.20
2018,08,19,13,22,20.20
2018,08,19,13,23,20.30
2018,08,19,13,24,20.30
2018,08,19,13,25,20.30
2018,08,19,13,26,20.40
2018,08,19,13,27,20.40
2018,08,19,13,28,20.50
2018,08,19,13,29,20.60
2018,08,19,13,30,20.60
2018,08,19,13,31,20.60
2018,08,19,13,32,20.60
2018,08,19,13,33,20.70
2018,08,19,13,34,20.70
2018,08,19,13,35,20.80
2018,08,19,13,36,20.80
2018,08,19,13,37,20.80
2018,08,19,13,38,20.80
2018,08,19,13,39,20.80
2018,08,19,13,40,20.80
2018,08,19,13,41,20.90
2018,08,19,13,42,20.90
2018,08,19,13,43,20.90
2018,08,19,13,44,21.00
2018,08,19,13,45,21.10
2018,08,19,13,46,21.10
2018,08,19,13,47,21.20
2018,08,19,13,48,21.20
2018,08,19,13,49,21.30
2018,08,19,13,50,21.30
2018,08,19,13,51,21.30
2018,08,19,13,52,21.20
2018,08,19,13,53,21.20
2018,08,19,13,54,21.20
2018,08,19,13,55,21.20
2018,08,19,13,56,21.10
2018,08,19,13,57,21.10
2018,08,19,13,58,21.10
2018,08,19,13,59,21.00
2018,08,19,14,00,21.00
2018,08,19,14,01,21.00
2018,08,19,14,02,21.10
2018,08,19,14,03,21.10
2018,08,19,14,04,21.20
2018,08,19,14,05,21.20
2018,08,19,14,06,21.30
2018,08,19,14,07,21.30
2018,08,19,14,08,21.30
2018,08,19,14,09,21.40
2018,08,19,14,10,21.50
2018,08,19,14,11,21.60
2018,08,19,14,12,21.60
2018,08,19,14,13,21.70
2018,08,19,14,14,21.80
2018,08,19,14,15,21.80
2018,08,19,14,16,21.90
2018,08,19,14,17,22.00
2018,08,19,14,18,22.00
2018,08,19,14,19,22.10
2018,08,19,14,20,22.10
2018,08,19,14,21,22.10
2018,08,19,14,22,22.10
2018,08,19,14,23,22.10
2018,08,19,14,24,22.00
2018,08,19,14,25,22.00
2018,08,19,14,26,21.90
2018,08,19,14,27,21.90
2018,08,19,14,28,21.90
2018,08,19,14,29,21.90
2018,08,19,14,30,21.90
2018,08,19,14,31,21.90
2018,08,19,14,32,21.90
2018,08,19,14,33,21.90
2018,08,19,14,34,22.00
2018,08,19,14,35,22.00
2018,08,19,14,36,22.00
2018,08,19,14,37,21.90
2018,08,19,14,38,21.90
2018,08,19,14,39,21.90
2018,08,19,14,40,22.00
2018,08,19,14,41,22.00
2018,08,19,14,42,22.00
2018,08,19,14,43,22.00
2018,08,19,14,44,22.00
2018,08,19,14,45,21.90
2018,08,19,14,46,22.00
2018,08,19,14,47,22.00
2018,08,19,14,48,22.10
2018,08,19,14,49,22.10
2018,08,19,14,50,22.10
2018,08,19,14,51,22.10
2018,08,19,14,52,22.10
2018,08,19,14,53,22.10
2018,08,19,14,54,22.10
2018,08,19,14,55,22.10
2018,08,19,14,56,22.20
2018,08,19,14,57,22.20
2018,08,19,14,58,22.20
2018,08,19,14,59,22.30
2018,08,19,15,00,22.30
2018,08,19,15,01,22.30
2018,08,19,15,02,22.30
2018,08,19,15,03,22.30
2018,08,19,15,04,22.30
2018,08,19,15,05,22.30
2018,08,19,15,06,22.40
2018,08,19,15,07,22.40
2018,08,19,15,08,22.40
2018,08,19,15,09,22.40
2018,08,19,15,10,22.40
2018,08,19,15,11,22.40
2018,08,19,15,12,22.40
2018,08,19,15,13,22.40
2018,08,19,15,14,22.40
2018,08,19,15,15,22.40
2018,08,19,15,16,22.40
2018,08,19,15,17,22.40
2018,08,19,15,18,22.40
2018,08,19,15,19,22.40
2018,08,19,15,20,22.50
2018,08,19,15,21,22.50
2018,08,19,15,22,22.60
2018,08,19,15,23,22.60
2018,08,19,15,24,22.60
2018,08,19,15,25,22.60
2018,08,19,15,26,22.70
2018,08,19,15,27,22.70
2018,08,19,15,28,22.80
2018,08,19,15,29,22.80
2018,08,19,15,30,22.80
2018,08,19,15,31,22.80
2018,08,19,15,32,22.80
2018,08,19,15,33,22.70
2018,08,19,15,34,22.70
2018,08,19,15,35,22.70
2018,08,19,15,36,22.70
2018,08,19,15,37,22.60
2018,08,19,15,38,22.70
2018,08,19,15,39,22.70
2018,08,19,15,40,22.70
2018,08,19,15,41,22.80
2018,08,19,15,42,22.80
2018,08,19,15,43,22.80
2018,08,19,15,44,22.90
2018,08,19,15,45,22.90
2018,08,19,15,46,22.90
2018,08,19,15,47,23.00
2018,08,19,15,48,23.00
2018,08,19,15,49,23.00
2018,08,19,15,50,23.00
2018,08,19,15,51,23.00
2018,08,19,15,52,23.10
2018,08,19,15,53,23.10
2018,08,19,15,54,23.10
2018,08,19,15,55,23.10
2018,08,19,15,56,23.10
2018,08,19,15,57,23.10
2018,08,19,15,58,23.10
2018,08,19,15,59,23.10
2018,08,19,16,00,23.00
2018,08,19,16,01,23.00
2018,08,19,16,02,22.90
2018,08,19,16,03,22.90
2018,08,19,16,04,22.90
2018,08,19,16,05,22.90
2018,08,19,16,06,22.90
2018,08,19,16,07,22.90
2018,08,19,16,08,23.00
2018,08,19,16,09,23.00
2018,08,19,16,10,23.00
2018,08,19,16,11,23.10
2018,08,19,16,12,23.10
2018,08,19,16,13,23.10
2018,08,19,16,14,23.00
2018,08,19,16,15,23.00
2018,08,19,16,16,23.00
2018,08,19,16,17,23.00
2018,08,19,16,18,23.00
2018,08,19,16,19,22.90
2018,08,19,16,20,22.80
2018,08,19,16,21,22.80
2018,08,19,16,22,22.80
2018,08,19,16,23,22.70
2018,08,19,16,24,22.70
2018,08,19,16,25,22.70
2018,08,19,16,26,22.70
2018,08,19,16,27,22.60
2018,08,19,16,28,22.70
2018,08,19,16,29,22.70
2018,08,19,16,30,22.70
2018,08,19,16,31,22.70
2018,08,19,16,32,22.60
2018,08,19,16,33,22.60
2018,08,19,16,34,22.50
2018,08,19,16,35,22.50
2018,08,19,16,36,22.50
2018,08,19,16,37,22.50
2018,08,19,16,38,22.40
2018,08,19,16,39,22.40
2018,08,19,16,40,22.40
2018,08,19,16,41,22.40
2018,08,19,16,42,22.50
2018,08,19,16,43,22.50
2018,08,19,16,44,22.40
2018,08,19,16,45,22.40
2018,08,19,16,46,22.40
2018,08,19,16,47,22.50
2018,08,19,16,48,22.50
2018,08,19,16,49,22.50
2018,08,19,16,50,22.60
2018,08,19,16,51,22.60
2018,08,19,16,52,22.60
2018,08,19,16,53,22.70
2018,08,19,16,54,22.70
2018,08,19,16,55,22.70
2018,08,19,16,56,22.80
2018,08,19,16,57,22.80
2018,08,19,16,58,22.80
2018,08,19,16,59,22.80
2018,08,19,17,00,22.80
2018,08,19,17,01,22.80
2018,08,19,17,02,22.70
2018,08,19,17,03,22.70
2018,08,19,17,04,22.70
2018,08,19,17,05,22.70
2018,08,19,17,06,22.70
2018,08,19,17,07,22.70
2018,08,19,17,08,22.80
2018,08,19,17,09,22.80
2018,08,19,17,10,22.80
2018,08,19,17,11,22.80
2018,08,19,17,12,22.80
2018,08,19,17,13,22.80
2018,08,19,17,14,22.80
2018,08,19,17,15,22.80
2018,08,19,17,16,22.80
2018,08,19,17,17,22.70
2018,08,19,17,18,22.70
2018,08,19,17,19,22.70